{"data":{"norad_id":55159,"epoch":"2026-09-19T23:59:40.991136Z","epoch_age_seconds":65134,"freshness":"FRESH","line1":"1 55159U 23004V   26262.99977999  .00003144  00000+0  17167-3 0  9996","line2":"2 55159  86.9090 139.1308 0010008 309.9560  50.0801 15.13921682196609","mean_motion":15.13921682,"eccentricity":0.0010008,"inclination_deg":86.909,"raan_deg":139.1308,"arg_perigee_deg":309.956,"mean_anomaly_deg":50.0801,"bstar":0.00017167,"rev_number":19660,"period_min":95.117205673259,"perigee_km":517.34627108593,"apogee_km":531.16209728019,"semimajor_km":6902.3911841831,"source":"CELESTRAK","updated_at":"2026-09-20T09:00:44.753982Z"}}